Location: Unspecified
(0.0000°N, 0.0000°E)
Time: 16:47:40
(UTC+00:00)

Interbol-2 - Pass Details

Date: 05 June 2023
Orbit: 911 x 19062 km, 62.8° (Epoch: 28 September)

Event Time Altitude Azimuth Distance (km) Brightness Sun altitude
Rises 17:28:56 0° 158° (SSE) 6,425 9.8 6.8°
Reaches altitude 10° 17:33:53 10° 141° (SE) 6,626 9.8 5.7°
Maximum altitude 17:58:21 25° 85° (E) 10,792 10.9 0.0°
Drops below altitude 10° 19:28:22 10° 36° (NE) 22,642 12.8 -20.6°
Sets 20:14:16 0° 29° (NNE) 24,573 13.1 -31.0°
